Helicity
23 32 35 35 33 23 17 21 16 15 8 8 6 16 17 16 16 22 17 7 18 14 9 -0 45 32 -20 35 22 50 83 70 73 100 141 214 123 196 202 255 266 258 220 145 208 174 201
13 18 22 33 34 26 18 15 19 15 10 6 4 9 7 3 18 27 19 -11 -20 7 -0 28 65 5 -21 23 45 44 48 53 99 99 130 65 198 209 199 239 257 215 181 171 242 236 216
8 10 16 23 32 30 25 8 11 16 7 -2 4 15 -3 -7 -4 11 21 12 20 52 11 -14 25 -13 24 -9 48 68 54 36 40 74 44 128 189 224 213 208 235 215 217 221 328 290 193
6 9 10 20 30 35 32 19 6 10 9 -8 -4 7 10 -18 -7 20 45 40 63 101 159 104 23 -2 21 37 52 35 61 72 59 60 115 106 143 223 223 182 263 227 228 204 297 269 214
9 8 5 15 23 35 37 28 6 10 14 -4 -9 -2 3 -13 -26 -0 -0 20 50 60 158 141 30 9 40 178 84 77 49 85 68 71 88 115 149 218 213 202 299 273 224 193 241 234 185
5 6 3 7 11 24 39 32 19 5 16 13 -4 -17 -2 -13 -31 -6 22 66 59 88 111 142 97 48 149 60 107 107 39 152 106 97 118 149 185 209 218 204 250 220 216 232 202 226 184
-1 -1 -4 -2 3 11 24 31 14 21 16 21 25 -19 -15 -26 -20 -9 30 6 -3 36 81 68 65 70 70 55 50 48 116 188 115 123 194 205 187 210 195 165 168 148 173 157 202 173 134
4 -3 -7 -6 -3 2 9 20 15 16 32 32 32 12 -29 -51 -56 -31 23 51 86 88 86 101 70 65 104 64 75 52 238 255 113 185 247 178 191 210 162 160 135 172 164 179 153 138 103
12 7 -1 -7 -6 1 16 20 8 16 32 42 38 3 -45 -41 -47 -30 -12 21 53 49 75 84 92 104 75 50 131 185 211 198 247 133 105 124 181 137 95 178 182 224 136 132 102 106 89
21 16 7 1 -5 -4 12 33 30 13 24 52 45 16 -12 -20 30 10 10 -10 16 32 78 85 60 53 69 60 86 85 74 98 114 151 125 122 176 121 78 95 158 172 134 105 95 121 114
28 23 15 10 -2 -3 7 41 36 19 35 41 50 35 24 18 81 51 33 9 18 23 70 83 75 73 45 20 75 54 41 32 21 86 35 123 129 134 155 91 88 79 63 72 92 95 99
42 33 24 18 6 1 3 45 56 36 31 35 49 41 39 51 40 33 9 16 20 44 62 26 62 48 25 40 15 61 57 34 44 86 149 105 89 102 139 146 81 38 84 99 82 79 121
48 39 32 27 17 6 11 34 42 32 23 38 46 48 62 70 74 22 26 31 69 109 38 29 35 35 41 36 26 17 17 42 14 32 110 120 143 119 121 126 110 87 110 155 145 144 104
47 47 37 35 29 15 12 28 41 42 18 46 91 59 61 71 55 30 37 57 85 72 63 33 31 27 14 17 21 18 12 16 42 15 48 47 80 110 121 88 73 99 78 86 111 106 91
47 40 35 33 32 22 21 30 42 43 21 36 90 92 67 63 53 52 74 81 105 83 42 41 31 12 12 10 24 12 13 15 51 39 17 34 64 79 79 86 75 63 64 47 39 50 54
44 39 33 31 30 23 22 40 53 43 28 34 80 82 56 56 56 64 98 102 75 62 67 57 70 40 12 9 -7 -2 5 10 10 5 28 28 48 47 71 61 62 62 51 54 64 41 43
37 36 40 40 36 28 28 37 64 61 31 49 56 57 60 52 56 68 100 92 89 47 53 76 74 63 57 20 -10 -13 -5 -3 -10 9 -5 18 6 24 39 67 61 83 82 89 56 38 -37
46 43 38 35 37 37 40 46 68 70 34 50 35 47 51 61 55 66 70 61 57 73 43 39 52 61 65 50 45 7 -18 -5 -1 -4 -33 -15 -18 3 20 14 23 28 64 77 34 24 77
51 53 43 34 26 29 36 44 62 71 24 21 36 35 36 35 55 50 53 55 58 48 49 46 39 34 40 65 72 48 38 10 -13 -39 -45 -31 -53 -58 -29 6 48 33 50 84 106 95 37
54 57 64 61 50 43 44 50 74 78 21 24 37 41 19 17 13 46 38 42 40 39 39 40 42 31 24 27 24 66 52 23 4 -0 -18 -25 -63 -76 -86 -92 -90 -39 37 78 127 119 112
79 62 62 76 68 63 58 69 88 104 35 25 41 48 36 39 28 46 47 51 50 41 38 22 11 7 -5 -7 -12 5 26 35 14 -7 -20 -19 -1 -34 -58 -68 -92 -95 -90 12 22 121 84
93 85 65 58 67 68 68 65 77 136 45 52 59 57 43 47 27 40 40 57 58 42 52 36 41 28 29 45 34 -25 -39 -28 3 13 49 32 29 -7 -19 -1 -17 -60 -21 -9 22 100 86
102 93 86 65 63 78 71 68 72 120 58 52 31 32 54 47 66 73 54 51 53 58 54 58 47 34 24 28 31 28 50 58 25 -19 -34 -7 43 34 12 63 44 -28 1 76 108 133 123
91 83 76 63 60 68 72 77 70 78 68 45 40 47 82 64 64 63 70 63 64 57 63 53 67 61 51 38 36 45 57 63 62 85 95 66 40 34 32 49 96 50 67 69 84 76 65
82 65 62 63 56 52 55 61 60 64 64 56 49 72 105 87 66 69 78 83 90 75 69 68 62 66 71 84 63 64 69 82 80 105 107 108 127 118 125 110 64 71 81 80 104 91 35
185 83 62 48 37 29 33 41 47 47 58 56 55 66 102 134 89 98 89 80 96 107 104 84 88 97 108 98 130 153 139 115 136 108 101 149 167 187 190 176 131 95 107 109 75 93 111
156 168 159 69 45 38 30 28 31 36 49 64 61 54 111 142 125 133 132 115 111 117 119 93 82 103 129 146 192 210 207 176 208 199 186 202 212 218 254 251 144 90 133 136 179 147 -9
160 189 139 145 111 53 49 46 39 37 50 68 64 43 94 132 114 102 116 155 165 160 155 110 137 130 178 198 199 194 217 202 211 216 185 200 243 235 254 245 166 137 154 147 85 49 53
179 162 149 170 146 148 86 74 66 57 64 89 77 56 63 99 104 87 81 98 110 120 166 175 174 150 116 179 163 200 229 231 226 269 153 195 183 204 182 187 99 140 129 90 55 58 140
Wind_Speed
53 54 53 54 51 47 42 33 29 32 37 41 40 43 45 48 51 48 53 55 56 52 49 42 20 13 21 24 28 33 34 28 26 26 29 43 42 49 69 70 61 60 54 46 47 43 40
54 57 57 57 56 54 46 36 29 27 31 36 36 40 41 43 45 43 49 48 55 50 42 19 16 23 33 25 30 31 31 27 35 41 40 42 37 46 58 64 63 53 44 42 41 42 40
53 54 57 57 57 57 50 42 31 27 28 29 33 33 36 37 39 38 39 39 47 47 38 20 21 37 30 24 27 30 29 28 39 41 34 39 37 45 51 59 49 47 47 42 41 45 42
47 47 53 53 52 54 51 44 34 27 28 27 27 32 32 32 34 31 29 32 38 38 36 22 17 28 39 18 27 27 29 28 25 25 33 32 35 44 47 44 50 53 48 59 50 46 45
39 41 48 48 50 53 48 45 35 30 28 28 24 28 30 32 34 31 28 36 41 27 32 32 28 41 28 16 33 23 16 26 24 32 44 34 31 43 46 57 63 55 67 60 54 42 46
40 40 46 46 50 53 48 47 39 33 30 29 27 25 27 30 34 31 24 30 40 53 47 46 39 39 37 31 25 25 19 26 38 32 41 34 35 48 52 59 82 72 62 54 57 49 45
49 42 46 47 48 50 49 47 44 39 33 28 30 28 28 28 33 40 47 44 48 55 56 60 46 39 26 35 35 17 23 30 46 51 35 35 40 61 60 49 55 56 53 51 47 44 47
59 59 54 50 49 50 55 50 44 39 36 31 30 29 27 27 30 37 45 53 50 43 55 45 44 22 41 36 59 57 42 33 43 36 34 25 41 47 46 42 46 52 53 51 45 42 46
59 62 63 53 54 49 42 47 53 42 34 36 33 29 22 22 28 33 40 39 33 34 48 45 37 37 26 45 48 48 46 43 41 25 23 20 38 44 46 42 44 45 50 49 48 41 38
58 60 63 63 52 56 40 30 39 44 36 35 35 32 24 21 28 27 29 28 27 29 47 41 32 32 22 36 30 33 36 32 37 16 21 19 33 37 54 51 45 52 41 39 36 42 49
57 58 61 64 59 58 47 20 24 39 28 33 37 34 32 36 32 31 28 25 29 31 57 23 32 23 24 42 29 11 26 31 50 32 24 28 30 30 43 52 42 45 36 36 37 39 42
57 58 60 63 63 60 62 25 26 22 29 23 36 35 34 34 32 29 27 29 31 45 59 39 33 36 42 36 37 23 18 35 40 13 1 22 25 26 31 30 32 30 32 31 35 40 53
56 57 59 62 65 65 72 59 48 34 18 23 34 40 42 36 35 28 28 29 45 60 35 39 39 35 40 40 39 36 37 27 42 42 26 23 22 24 24 29 28 33 38 45 50 53 56
54 57 58 61 65 66 71 75 60 52 35 34 37 44 43 40 33 32 32 38 58 47 45 35 34 35 44 36 38 35 41 44 28 39 35 31 29 26 27 28 35 33 37 43 52 53 53
54 56 58 60 63 66 71 74 69 61 49 39 34 36 41 35 33 33 35 50 47 42 38 38 36 42 38 38 38 40 41 41 36 34 37 28 28 29 24 26 29 35 41 31 35 41 50
54 55 57 59 62 65 69 72 70 69 57 38 35 32 36 32 33 37 42 48 41 37 36 36 46 40 43 35 38 39 37 36 37 29 32 37 25 29 30 28 25 31 23 42 44 52 56
53 55 57 59 61 63 67 72 72 69 66 41 30 28 29 32 32 40 45 42 39 33 34 38 40 41 42 38 37 36 36 37 35 30 31 35 31 29 29 31 32 31 36 36 37 45 53
54 55 56 58 60 63 67 70 72 71 65 43 25 31 26 32 35 38 44 41 35 35 32 33 36 38 39 38 40 38 36 32 27 30 35 33 37 28 28 30 33 34 37 37 48 53 48
53 54 54 57 58 61 65 68 70 69 65 28 28 27 28 32 40 41 38 38 37 36 33 31 31 32 33 36 40 36 34 32 30 31 33 33 34 38 39 42 39 37 38 38 39 44 56
50 54 55 57 58 61 65 66 67 66 59 38 30 34 34 41 40 39 36 37 37 34 34 33 31 30 30 31 32 35 35 32 30 32 32 31 32 32 34 35 37 44 46 39 42 52 55
51 51 54 54 55 59 64 65 65 64 55 40 40 33 32 33 37 39 36 36 36 36 34 33 33 32 32 32 30 29 29 30 28 29 28 29 26 26 27 29 30 36 31 12 14 39 58
51 51 52 52 55 58 62 63 63 63 51 40 37 35 35 34 29 30 32 30 30 30 31 32 30 32 31 30 30 28 28 26 24 25 24 22 17 16 12 12 8 23 30 31 26 46 75
54 54 53 52 54 56 58 60 60 61 49 39 37 34 34 35 33 32 30 30 29 29 29 29 30 30 29 24 26 26 26 24 22 24 22 21 21 21 17 24 29 15 10 10 32 36 40
57 56 56 55 53 52 53 56 56 55 49 37 35 34 38 42 37 34 32 30 27 26 27 28 28 27 28 29 29 28 28 26 24 22 22 21 25 28 28 34 36 28 38 31 29 40 38
55 55 55 53 52 51 49 51 51 50 48 40 35 36 38 45 40 41 34 33 33 32 28 28 27 28 30 32 31 31 29 28 26 28 20 21 21 29 34 36 41 40 36 35 38 41 41
56 57 54 52 50 48 46 46 47 45 43 42 38 36 39 45 43 37 40 36 36 34 35 32 32 30 31 30 30 35 36 31 31 29 31 24 25 25 37 49 54 35 37 41 40 56 42
56 58 58 57 56 52 49 45 45 43 40 40 40 35 40 48 45 38 43 43 36 38 40 37 33 31 32 33 36 36 39 31 39 37 34 31 32 32 37 51 54 36 39 41 54 51 41
59 59 62 63 61 58 55 50 47 44 39 39 42 35 41 48 51 42 41 42 41 41 43 38 40 39 37 38 40 41 41 38 39 36 35 38 39 43 39 50 63 34 39 48 52 59 54
63 64 65 66 67 65 62 55 48 43 38 35 45 38 37 44 48 43 42 40 38 37 40 36 42 42 35 40 39 40 47 45 46 54 36 47 38 47 38 44 40 39 47 58 63 67 60
Wind_Direction
67 62 58 52 48 48 48 52 51 47 44 43 43 42 41 39 40 43 40 42 39 46 48 355 294 236 11 296 291 267 268 270 250 239 232 231 221 219 212 215 220 221 226 234 232 231 229
63 58 55 51 48 45 45 48 49 47 45 44 45 45 45 45 44 47 49 55 49 55 62 260 257 152 125 321 263 266 263 265 235 223 221 225 226 228 216 215 218 222 221 228 229 228 230
62 58 52 50 48 45 44 44 47 47 47 46 48 46 45 46 48 54 58 63 60 72 84 147 260 80 360 169 222 241 244 238 224 218 238 225 234 222 214 211 215 216 217 223 229 230 229
64 60 52 50 49 45 44 44 45 48 49 50 51 50 49 49 51 56 63 67 74 84 86 126 153 154 127 250 196 208 219 230 243 250 224 222 236 219 216 213 215 216 219 216 228 230 231
67 61 53 51 48 45 44 43 44 48 50 52 54 55 55 58 58 63 75 77 72 92 95 107 119 123 136 234 155 213 273 228 243 220 203 236 234 213 213 208 207 216 212 217 221 233 229
63 61 53 51 47 44 44 42 44 48 52 53 57 61 62 65 65 68 76 87 77 82 89 96 107 116 123 137 161 209 273 245 202 212 206 225 225 207 210 210 206 210 212 219 221 230 231
48 55 51 49 47 45 43 42 44 49 52 56 58 66 69 73 72 71 74 86 80 77 83 86 109 114 132 117 125 200 181 185 174 176 208 224 208 201 206 218 216 213 215 218 228 236 234
24 31 41 46 46 44 42 42 44 49 52 56 60 67 75 80 81 78 77 76 80 86 79 96 103 138 112 124 108 117 156 175 176 202 218 221 207 212 213 218 214 214 215 223 233 241 240
13 15 19 40 40 44 44 42 42 48 52 53 56 61 76 90 86 81 75 79 93 97 84 87 106 108 131 115 110 117 129 147 161 171 203 207 215 215 212 214 211 214 219 224 232 239 247
3 8 10 19 39 37 43 36 41 45 50 52 53 57 72 93 86 84 81 88 100 105 84 80 97 107 132 128 141 142 152 183 177 209 204 219 218 214 213 217 222 218 232 232 232 237 240
358 5 7 9 27 31 38 358 18 40 47 52 54 58 69 74 85 83 89 94 102 107 73 88 93 117 119 118 147 208 161 164 132 188 229 209 209 215 211 220 229 226 235 237 241 245 248
351 357 0 4 15 25 25 329 335 12 41 56 56 59 68 75 82 88 92 96 97 83 75 91 100 96 100 109 115 150 192 150 148 204 261 204 220 222 220 225 229 226 234 244 249 251 247
343 350 353 357 6 15 8 328 323 325 5 60 61 59 65 73 78 91 98 99 76 69 99 90 96 101 101 101 107 117 132 163 136 155 200 211 215 221 229 221 235 239 234 237 241 245 248
337 342 346 350 359 9 5 348 327 324 320 54 60 59 62 69 79 85 90 84 66 80 88 106 106 105 98 105 105 116 124 122 157 152 189 210 217 232 242 239 236 240 242 242 242 246 254
331 336 341 346 353 2 359 347 333 326 321 46 57 58 59 67 77 82 85 69 76 87 96 96 103 95 101 106 110 112 116 121 142 155 169 220 229 236 248 251 252 245 245 260 260 265 262
326 331 338 342 350 357 356 342 332 331 321 43 57 68 62 70 79 79 78 73 88 100 99 96 84 95 91 103 109 112 115 129 142 163 172 175 233 242 249 256 274 261 261 256 263 261 263
323 326 331 337 345 351 352 344 334 329 327 38 68 78 70 71 81 76 74 82 93 104 102 94 92 92 93 99 106 111 119 134 141 154 164 180 197 248 255 262 263 267 266 273 274 272 271
319 323 329 335 341 344 342 340 335 330 328 36 78 67 77 75 76 80 74 81 94 95 101 97 98 100 97 99 99 105 116 137 168 161 147 166 163 240 272 279 276 277 277 277 270 270 278
320 324 330 333 338 338 334 331 331 330 345 55 60 75 80 78 68 71 82 82 84 86 92 97 98 96 100 100 93 107 120 140 155 152 150 172 156 158 191 237 272 284 282 283 287 287 279
319 320 324 329 332 332 329 325 326 327 348 36 54 45 57 57 65 68 74 72 74 83 83 88 93 103 100 96 98 94 102 131 149 143 140 148 145 147 159 172 186 226 276 287 286 285 287
316 320 324 326 328 328 323 321 321 322 338 18 24 36 50 46 51 53 58 60 63 65 73 78 78 82 81 83 84 90 101 95 112 152 163 155 130 142 167 181 185 199 197 317 224 291 286
311 318 321 323 322 323 320 319 319 319 337 360 9 15 19 26 51 51 50 59 62 65 68 68 71 68 72 76 79 74 81 89 92 86 72 73 79 84 123 112 105 200 209 209 218 295 283
304 310 316 319 317 317 316 318 322 324 336 350 357 6 5 1 11 20 31 37 40 48 49 52 51 48 49 61 58 57 60 61 67 61 63 58 50 31 16 8 348 329 284 316 315 307 307
297 302 305 307 313 316 319 320 323 330 339 350 354 357 346 337 348 357 5 10 19 25 23 28 30 31 33 34 29 28 25 20 21 30 33 34 24 13 359 353 336 348 335 336 327 320 314
294 298 301 305 310 314 319 321 325 330 336 343 347 343 337 327 334 335 343 348 353 356 2 4 10 13 8 8 12 9 12 13 17 5 7 15 13 358 349 343 337 339 342 340 337 332 334
298 296 299 303 308 313 317 322 324 328 334 336 338 342 331 323 325 333 332 336 336 339 343 346 352 355 356 358 357 348 348 358 358 6 1 356 352 343 337 327 322 342 339 335 335 318 336
297 298 300 298 300 303 308 313 317 323 331 332 332 339 329 317 320 323 319 322 331 331 330 335 341 341 343 338 332 330 329 342 335 336 338 340 332 316 318 319 320 329 331 332 318 322 327
296 297 297 298 298 298 299 302 306 310 317 323 325 330 327 316 313 317 317 314 317 318 319 328 330 328 328 324 325 325 323 327 329 330 332 324 322 320 320 316 315 326 326 323 323 319 317
295 296 295 297 296 297 295 295 297 301 305 313 314 323 323 316 313 320 318 317 316 317 317 316 318 323 323 323 321 324 318 322 321 318 325 317 315 317 310 317 324 319 319 317 318 315 314